Levens Addition, Louisiana
Current Conditions -  °F | °C
As of 2:35 PM on Thursday 27 Nov 2014 (Local Time) from KHEZ Reporting Station
Clear Clear  
Wind Chill: 52°   Ceiling: Unl
Heat Index: 52°   Visibility: 10mi
Dew Point: 30°   Wind: 14mph
Humidity: 44%   Direction: 340°NNW
Pressure: 30.45"   Gusts: 17mph
Location:  31.6488°N, 91.6098°W
Report Text: KHEZ 272035Z AUTO 34012G15KT 320V020 10SM CLR 11/M01 A3045 RMK AO1
Loading
Personal Weather Stations






























Interactive Weather Map New forecast layout! Learn more

10-Day Weather Forecast

Advertisements
Track Severe Weather on mobile